Regional Weather Roundup
Issued by NWS

Home | Current Version | Previous Version | Text Only | Print | Product List | Glossary Off
Versions: 1 2 3 4 5 6 7 8 9 10 11 12 13 14 15 16 17 18 19 20 21 22 23 24 25 26 27 28 29 30 31 32 33 34 35 36 37 38 39 40 41 42 43 44 45 46 47 48 49 50

000
ASUS43 KDMX 052307
RWRIA

WEATHER ROUNDUP FOR IOWA
NATIONAL WEATHER SERVICE DES MOINES IA
600 PM CDT TUE MAY 05 2015

NOTE: "FAIR" INDICATES FEW OR NO CLOUDS BELOW 12,000 FEET WITH NO
SIGNIFICANT WEATHER AND/OR OBSTRUCTIONS TO VISIBILITY.

* - THESE STATIONS ARE NOT NWS STATIONS...THUS NOT UNDER NWS
QUALITY CONTROL.  THEY ALSO DO NOT REPORT WEATHER SUCH
AS PRECIPITATION OR FOG.

IAZ001>003-012>014-020>022-031>034-043>046-060000-
   NORTHWEST IOWA

CITY           SKY/WX    TMP DP  RH WIND       PRES   REMARKS
CARROLL *      MOSUNNY   75  63  64 S9        30.01F
CHEROKEE *     CLOUDY    70  64  83 E12G20    30.01S
DENISON *      MOSUNNY   73  61  64 S9G16     29.99S
LE MARS *      MOSUNNY   75  61  60 S9G18     29.99S
ORANGE CITY *  MOSUNNY   72  57  60 S7        30.00S
SHELDON *      PTSUNNY   66  64  94 E18G24    30.01S
SIOUX CITY     CLOUDY    76  59  55 S15       29.97F
SPENCER        CLOUDY    63  60  90 E15       30.05S
STORM LAKE *   MOSUNNY   72  61  68 S9        30.03S
$$

IAZ055>058-069>071-079>083-090>094-060000-
   SOUTHWEST IOWA

CITY           SKY/WX    TMP DP  RH WIND       PRES   REMARKS
ATLANTIC *     SUNNY     77  57  50 S10       30.01F
AUDUBON *      SUNNY     75  59  57 S7        30.03S
CLARINDA *     SUNNY     75  59  57 SE9       30.02F
COUNCIL BLFS * MOSUNNY   73  63  68 S17       30.00S
CRESTON *      PTSUNNY   75  59  57 SE10      30.04S
HARLAN  *      MOSUNNY   75  59  57 S14       30.03F
LAMONI         PTSUNNY   78  58  49 S8        30.04S
RED OAK *      SUNNY     75  61  60 S13G18    30.01S
SHENANDOAH *   SUNNY     75  63  64 SE9       30.00F
$$

IAZ047>049-059>061-072>074-084-060000-
   CENTRAL IOWA

CITY           SKY/WX    TMP DP  RH WIND       PRES   REMARKS
AMES           CLOUDY    67  61  81 NE8       30.05F
ANKENY *       SUNNY     75  64  69 SE5       30.04S
CHARITON *     MOSUNNY   77  59  53 S10       30.05S
DES MOINES     CLOUDY    78  60  53 S7        30.03F
GRINNELL*      PTSUNNY   77  59  53 SE10      30.07R
KNOXVILLE *    SUNNY     79  57  47 S8G15     30.04S HX  80
MARSHALLTOWN   CLOUDY    65  62  90 E17       30.08R FOG
PELLA *        PTSUNNY   79  63  57 S8        30.06S HX  80
PERRY *        PTSUNNY   75  63  64 S6        30.02F
$$

IAZ004>006-015-016-023>025-035-036-060000-
   NORTH CENTRAL IOWA

CITY           SKY/WX    TMP DP  RH WIND       PRES   REMARKS
ALGONA *       CLOUDY    59  59 100 E14G20    30.07F FOG
CLARION *      CLOUDY    61  61 100 E16G22    30.08S FOG
ESTHERVILLE    CLOUDY    58  57  97 SE16      30.07S FOG
FORT DODGE *   CLOUDY    66  63  88 E15       30.06S
MASON CITY     CLOUDY    55  54  96 E13       30.12F
FOREST CITY *  CLOUDY    54  54 100 E13       30.10F
IOWA FALLS *   CLOUDY    61  59  94 E13       30.10S FOG
$$

IAZ007>011-017>019-026>030-037>042-050>054-066-060000-
   NORTHEAST IOWA

CITY           SKY/WX    TMP DP  RH WIND       PRES   REMARKS
CEDAR RAPIDS   CLOUDY    65  62  90 E14       30.09F FOG
CHARLES CITY * CLOUDY    55  55 100 E15       30.13S
CLINTON *      PTSUNNY   61  57  88 E14       30.16F
DECORAH *      CLOUDY    54  54 100 E10       30.15F
DUBUQUE        CLOUDY    57  54  89 E9        30.16S
MONTICELLO *   CLOUDY    59  59 100 E12       30.14S
OELWEIN *      CLOUDY    57  57 100 E15       30.14S
WATERLOO       CLOUDY    60  57  89 E14       30.12R
$$

IAZ064-065-067-068-078-060000-
   EAST CENTRAL IOWA

CITY           SKY/WX    TMP DP  RH WIND       PRES   REMARKS
DAVENPORT      CLOUDY    66  60  81 E14       30.12F HAZE
IOWA CITY      PTSUNNY   70  64  81 E13G18    30.10S
MT. PLEASANT * MOSUNNY   81  59  47 S6        30.07S HX  81
MUSCATINE *    CLOUDY    73  64  73 NE13      30.08S
QUAD CITIES    PTSUNNY   68  62  81 NE13      30.10F HAZE
$$

IAZ062-063-075>077-085>089-095>099-060000-
   SOUTHEAST IOWA

CITY           SKY/WX    TMP DP  RH WIND       PRES   REMARKS
BURLINGTON     MOSUNNY   79  60  52 S5        30.07F HX  80
FAIRFIELD *    MOSUNNY   79  57  47 S5G12     30.07S HX  80
FORT MADISON * MOSUNNY   79  57  47 S6        30.08S HX  80
KEOKUK *       SUNNY     81  59  47 VRB5      30.06S HX  81
OSKALOOSA *    PTSUNNY   77  59  53 S8        30.06S
CENTERVILLE *  SUNNY     77  59  53 S7        30.07S
OTTUMWA        MOSUNNY   78  59  51 S9        30.06R
WASHINGTON *   PTSUNNY   75  75 100 E8G15     30.07S FOG
$$

ABBREVIATIONS USED IN REMARKS
   TC - TEMPERATURES IN CELSIUS
  WCI - WIND CHILL INDEX
   HX - HEAT INDEX
  VSB - VISIBILITY
$$




USA.gov is the U.S. government's official web portal to all federal, state and local government web resources and services.